Regional Weather Roundup
Issued by NWS Cleveland, OH

Home | Current Version | Previous Version | Graphics & Text | Print | Product List | Glossary On
Versions: 1 2 3 4 5 6 7 8 9 10 11 12 13 14 15 16 17 18 19 20 21 22 23 24 25 26 27 28 29 30 31 32 33 34 35 36 37 38 39 40 41 42 43 44 45 46 47 48 49 50
000
ASUS41 KCLE 200712
RWRCLE
OHIO REGIONAL WEATHER ROUNDUP
NATIONAL WEATHER SERVICE WILMINGTON, OH
300 AM EDT SUN AUG 20 2017

NOTE: "FAIR" INDICATES FEW OR NO CLOUDS BELOW 12,000 FEET WITH NO
SIGNIFICANT WEATHER AND/OR OBSTRUCTIONS TO VISIBILITY.

OHZ001>008-015>018-024>027-034-035-043-044-200800-
   NORTHWEST OHIO

CITY           SKY/WX    TMP DP  RH WIND       PRES   REMARKS
DEFIANCE       FAIR      61  59  93 CALM      30.04R
FINDLAY        FAIR      63  58  83 E3        30.04R
TOLEDO EXPRESS FAIR      60  60 100 CALM      30.03R
TOLEDO EXEC    FAIR      63  61  93 S3        30.04R
LIMA           FAIR      59  58  96 CALM      30.05R
$$

OHZ009>014-019>023-028>033-038-089-200800-
   NORTHEAST OHIO

CITY           SKY/WX    TMP DP  RH WIND       PRES   REMARKS
CLE-HOPKINS    FAIR      64  60  87 CALM      30.06S
CLE-LAKEFRONT  FAIR      67  61  81 SE8       30.03S
CUY CO. ARPT   NOT AVBL
LORAIN-ELYRIA    N/A    N/A N/A N/A MISG      30.06R
ASHTABULA      FAIR      58  57  97 CALM      30.07R
AKRON-CANTON   FAIR      62  57  83 CALM      30.07S
WOOSTER        FAIR      56  55  97 CALM      30.07S FOG
MANSFIELD      FAIR      62  60  93 CALM      30.07S
YOUNGSTOWN     FAIR      57  55  93 CALM      30.07R
$$

OHZ042-051>053-060>062-070>072-077>081-200800-
  SOUTHWEST OHIO

CITY           SKY/WX    TMP DP  RH WIND       PRES   REMARKS
CINC-COVINGTON CLOUDY    72  71  97 CALM      30.03S
CINC-LUNKEN    MOCLDY    70  69  97 E3        30.03R
HAMILTON       CLOUDY    70  69  97 CALM      30.03S
DAYTON         FAIR      66  60  81 NE3       30.05F
WRIGHT-PAT AFB CLEAR     64  64 100 NE3       30.04S
DAYTON GENERAL MOCLDY    69  64  84 NE8       30.02F
WILMINGTON     FAIR      65  65 100 NE5       30.04F
$$

OHZ036-037-039>041-045>050-054>059-063>069-073>076-082>088-200800-
  CENTRAL AND SOUTHEAST OHIO

CITY           SKY/WX    TMP DP  RH WIND       PRES   REMARKS
COLUMBUS       FAIR      66  65  96 NE3       30.04S
OSU AIRPORT    FAIR      63  62  97 CALM      30.05S
BOLTON FIELD   FAIR      62  62  99 CALM      30.05S
RICKENBACK AFB FAIR      64  64 100 NE5       30.04S
NEWARK         FOG       61  60  97 CALM      30.05S VSB 1/4
MARION         FAIR      59  56  89 CALM      30.06S
LANCASTER      FOG       61  61 100 CALM      30.05S VSB 3/4
ZANESVILLE     FOG       60  58  92 CALM      30.06S VSB 1/2
NEW PHILLY     FOG       64  64 100 CALM      30.07S VSB 1/4
$$




USA.gov is the U.S. government's official web portal to all federal, state and local government web resources and services.